Year,Month,Day,Hour,Minute,Value (Times are PST for temperature in C)
2009,08,26,00,00,12.90
2009,08,26,00,01,12.90
2009,08,26,00,02,12.90
2009,08,26,00,03,12.90
2009,08,26,00,04,12.80
2009,08,26,00,05,12.80
2009,08,26,00,06,12.80
2009,08,26,00,07,12.70
2009,08,26,00,08,12.70
2009,08,26,00,09,12.70
2009,08,26,00,10,12.60
2009,08,26,00,11,12.60
2009,08,26,00,12,12.60
2009,08,26,00,13,12.50
2009,08,26,00,14,12.40
2009,08,26,00,15,12.40
2009,08,26,00,16,12.40
2009,08,26,00,17,12.30
2009,08,26,00,18,12.30
2009,08,26,00,19,12.30
2009,08,26,00,20,12.30
2009,08,26,00,21,12.30
2009,08,26,00,22,12.30
2009,08,26,00,23,12.20
2009,08,26,00,24,12.20
2009,08,26,00,25,12.20
2009,08,26,00,26,12.20
2009,08,26,00,27,12.10
2009,08,26,00,28,12.10
2009,08,26,00,29,12.10
2009,08,26,00,30,12.10
2009,08,26,00,31,12.10
2009,08,26,00,32,12.10
2009,08,26,00,33,12.10
2009,08,26,00,34,12.10
2009,08,26,00,35,12.10
2009,08,26,00,36,12.10
2009,08,26,00,37,12.10
2009,08,26,00,38,12.10
2009,08,26,00,39,12.10
2009,08,26,00,40,12.10
2009,08,26,00,41,12.10
2009,08,26,00,42,12.10
2009,08,26,00,43,12.10
2009,08,26,00,44,12.10
2009,08,26,00,45,12.10
2009,08,26,00,46,12.10
2009,08,26,00,47,12.10
2009,08,26,00,48,12.10
2009,08,26,00,49,12.10
2009,08,26,00,50,12.10
2009,08,26,00,51,12.10
2009,08,26,00,52,12.10
2009,08,26,00,53,12.10
2009,08,26,00,54,12.10
2009,08,26,00,55,12.10
2009,08,26,00,56,12.10
2009,08,26,00,57,12.10
2009,08,26,00,58,12.10
2009,08,26,00,59,12.10
2009,08,26,01,00,12.00
2009,08,26,01,01,12.00
2009,08,26,01,02,12.00
2009,08,26,01,03,11.90
2009,08,26,01,04,11.90
2009,08,26,01,05,11.90
2009,08,26,01,06,11.90
2009,08,26,01,07,11.90
2009,08,26,01,08,11.80
2009,08,26,01,09,11.80
2009,08,26,01,10,11.80
2009,08,26,01,11,11.80
2009,08,26,01,12,11.80
2009,08,26,01,13,11.80
2009,08,26,01,14,11.80
2009,08,26,01,15,11.80
2009,08,26,01,16,11.80
2009,08,26,01,17,11.80
2009,08,26,01,18,11.80
2009,08,26,01,19,11.80
2009,08,26,01,20,11.80
2009,08,26,01,21,11.80
2009,08,26,01,22,11.70
2009,08,26,01,23,11.70
2009,08,26,01,24,11.70
2009,08,26,01,25,11.70
2009,08,26,01,26,11.70
2009,08,26,01,27,11.70
2009,08,26,01,28,11.70
2009,08,26,01,29,11.70
2009,08,26,01,30,11.70
2009,08,26,01,31,11.70
2009,08,26,01,32,11.70
2009,08,26,01,33,11.60
2009,08,26,01,34,11.60
2009,08,26,01,35,11.60
2009,08,26,01,36,11.60
2009,08,26,01,37,11.60
2009,08,26,01,38,11.60
2009,08,26,01,39,11.60
2009,08,26,01,40,11.60
2009,08,26,01,41,11.60
2009,08,26,01,42,11.60
2009,08,26,01,43,11.60
2009,08,26,01,44,11.50
2009,08,26,01,45,11.50
2009,08,26,01,46,11.50
2009,08,26,01,47,11.40
2009,08,26,01,48,11.40
2009,08,26,01,49,11.40
2009,08,26,01,50,11.40
2009,08,26,01,51,11.40
2009,08,26,01,52,11.30
2009,08,26,01,53,11.30
2009,08,26,01,54,11.30
2009,08,26,01,55,11.30
2009,08,26,01,56,11.30
2009,08,26,01,57,11.30
2009,08,26,01,58,11.30
2009,08,26,01,59,11.20
2009,08,26,02,00,11.20
2009,08,26,02,01,11.20
2009,08,26,02,02,11.20
2009,08,26,02,03,11.20
2009,08,26,02,04,11.20
2009,08,26,02,05,11.20
2009,08,26,02,06,11.20
2009,08,26,02,07,11.20
2009,08,26,02,08,11.20
2009,08,26,02,09,11.20
2009,08,26,02,10,11.10
2009,08,26,02,11,11.10
2009,08,26,02,12,11.10
2009,08,26,02,13,11.10
2009,08,26,02,14,11.10
2009,08,26,02,15,11.10
2009,08,26,02,16,11.00
2009,08,26,02,17,11.00
2009,08,26,02,18,11.00
2009,08,26,02,19,10.90
2009,08,26,02,20,10.90
2009,08,26,02,21,10.90
2009,08,26,02,22,10.90
2009,08,26,02,23,10.80
2009,08,26,02,24,10.80
2009,08,26,02,25,10.80
2009,08,26,02,26,10.80
2009,08,26,02,27,10.80
2009,08,26,02,28,10.80
2009,08,26,02,29,10.80
2009,08,26,02,30,10.80
2009,08,26,02,31,10.80
2009,08,26,02,32,10.80
2009,08,26,02,33,10.80
2009,08,26,02,34,10.80
2009,08,26,02,35,10.70
2009,08,26,02,36,10.70
2009,08,26,02,37,10.70
2009,08,26,02,38,10.70
2009,08,26,02,39,10.70
2009,08,26,02,40,10.70
2009,08,26,02,41,10.70
2009,08,26,02,42,10.70
2009,08,26,02,43,10.70
2009,08,26,02,44,10.80
2009,08,26,02,45,10.80
2009,08,26,02,46,10.80
2009,08,26,02,47,10.90
2009,08,26,02,48,10.90
2009,08,26,02,49,11.00
2009,08,26,02,50,11.00
2009,08,26,02,51,11.00
2009,08,26,02,52,11.10
2009,08,26,02,53,11.10
2009,08,26,02,54,11.10
2009,08,26,02,55,11.10
2009,08,26,02,56,11.10
2009,08,26,02,57,11.20
2009,08,26,02,58,11.20
2009,08,26,02,59,11.20
2009,08,26,03,00,11.20
2009,08,26,03,01,11.20
2009,08,26,03,02,11.20
2009,08,26,03,03,11.20
2009,08,26,03,04,11.20
2009,08,26,03,05,11.20
2009,08,26,03,06,11.20
2009,08,26,03,07,11.20
2009,08,26,03,08,11.20
2009,08,26,03,09,11.20
2009,08,26,03,10,11.20
2009,08,26,03,11,11.20
2009,08,26,03,12,11.20
2009,08,26,03,13,11.20
2009,08,26,03,14,11.20
2009,08,26,03,15,11.20
2009,08,26,03,16,11.20
2009,08,26,03,17,11.30
2009,08,26,03,18,11.30
2009,08,26,03,19,11.20
2009,08,26,03,20,11.20
2009,08,26,03,21,11.30
2009,08,26,03,22,11.30
2009,08,26,03,23,11.30
2009,08,26,03,24,11.30
2009,08,26,03,25,11.30
2009,08,26,03,26,11.30
2009,08,26,03,27,11.30
2009,08,26,03,28,11.30
2009,08,26,03,29,11.30
2009,08,26,03,30,11.30
2009,08,26,03,31,11.30
2009,08,26,03,32,11.30
2009,08,26,03,33,11.40
2009,08,26,03,34,11.40
2009,08,26,03,35,11.40
2009,08,26,03,36,11.40
2009,08,26,03,37,11.40
2009,08,26,03,38,11.40
2009,08,26,03,39,11.40
2009,08,26,03,40,11.40
2009,08,26,03,41,11.40
2009,08,26,03,42,11.40
2009,08,26,03,43,11.40
2009,08,26,03,44,11.30
2009,08,26,03,45,11.30
2009,08,26,03,46,11.30
2009,08,26,03,47,11.20
2009,08,26,03,48,11.20
2009,08,26,03,49,11.20
2009,08,26,03,50,11.10
2009,08,26,03,51,11.10
2009,08,26,03,52,11.10
2009,08,26,03,53,11.00
2009,08,26,03,54,11.00
2009,08,26,03,55,10.90
2009,08,26,03,56,10.90
2009,08,26,03,57,10.90
2009,08,26,03,58,10.80
2009,08,26,03,59,10.80
2009,08,26,04,00,10.80
2009,08,26,04,01,10.80
2009,08,26,04,02,10.80
2009,08,26,04,03,10.70
2009,08,26,04,05,10.70
2009,08,26,04,06,10.70
2009,08,26,04,07,10.70
2009,08,26,04,08,10.60
2009,08,26,04,09,10.60
2009,08,26,04,10,10.60
2009,08,26,04,11,10.60
2009,08,26,04,12,10.50
2009,08,26,04,13,10.50
2009,08,26,04,14,10.40
2009,08,26,04,15,10.40
2009,08,26,04,16,10.40
2009,08,26,04,17,10.40
2009,08,26,04,18,10.30
2009,08,26,04,19,10.30
2009,08,26,04,20,10.30
2009,08,26,04,21,10.30
2009,08,26,04,22,10.30
2009,08,26,04,23,10.30
2009,08,26,04,24,10.30
2009,08,26,04,25,10.30
2009,08,26,04,26,10.30
2009,08,26,04,27,10.30
2009,08,26,04,28,10.30
2009,08,26,04,29,10.30
2009,08,26,04,30,10.20
2009,08,26,04,31,10.20
2009,08,26,04,32,10.20
2009,08,26,04,33,10.20
2009,08,26,04,34,10.10
2009,08,26,04,35,10.10
2009,08,26,04,36,10.10
2009,08,26,04,37,10.10
2009,08,26,04,38,10.10
2009,08,26,04,39,10.10
2009,08,26,04,40,10.10
2009,08,26,04,41,10.10
2009,08,26,04,42,10.10
2009,08,26,04,43,10.10
2009,08,26,04,44,10.10
2009,08,26,04,45,10.10
2009,08,26,04,46,10.10
2009,08,26,04,47,10.10
2009,08,26,04,48,10.10
2009,08,26,04,49,10.00
2009,08,26,04,50,10.00
2009,08,26,04,51,10.00
2009,08,26,04,52,10.00
2009,08,26,04,53,9.90
2009,08,26,04,54,9.90
2009,08,26,04,55,9.90
2009,08,26,04,56,9.80
2009,08,26,04,57,9.80
2009,08,26,04,58,9.80
2009,08,26,04,59,9.80
2009,08,26,05,00,9.80
2009,08,26,05,01,9.80
2009,08,26,05,02,9.80
2009,08,26,05,03,9.80
2009,08,26,05,04,9.80
2009,08,26,05,05,9.70
2009,08,26,05,06,9.70
2009,08,26,05,07,9.70
2009,08,26,05,08,9.70
2009,08,26,05,09,9.70
2009,08,26,05,10,9.70
2009,08,26,05,11,9.70
2009,08,26,05,12,9.70
2009,08,26,05,13,9.70
2009,08,26,05,14,9.70
2009,08,26,05,15,9.70
2009,08,26,05,16,9.70
2009,08,26,05,17,9.70
2009,08,26,05,18,9.70
2009,08,26,05,19,9.60
2009,08,26,05,20,9.60
2009,08,26,05,21,9.60
2009,08,26,05,22,9.60
2009,08,26,05,23,9.60
2009,08,26,05,24,9.60
2009,08,26,05,25,9.60
2009,08,26,05,26,9.60
2009,08,26,05,27,9.60
2009,08,26,05,28,9.60
2009,08,26,05,29,9.60
2009,08,26,05,30,9.60
2009,08,26,05,31,9.50
2009,08,26,05,32,9.50
2009,08,26,05,33,9.50
2009,08,26,05,34,9.50
2009,08,26,05,35,9.50
2009,08,26,05,36,9.40
2009,08,26,05,37,9.40
2009,08,26,05,38,9.40
2009,08,26,05,39,9.40
2009,08,26,05,40,9.40
2009,08,26,05,41,9.40
2009,08,26,05,42,9.40
2009,08,26,05,43,9.40
2009,08,26,05,44,9.40
2009,08,26,05,45,9.40
2009,08,26,05,46,9.40
2009,08,26,05,47,9.40
2009,08,26,05,48,9.40
2009,08,26,05,49,9.40
2009,08,26,05,50,9.40
2009,08,26,05,51,9.40
2009,08,26,05,52,9.40
2009,08,26,05,53,9.40
2009,08,26,05,54,9.40
2009,08,26,05,55,9.40
2009,08,26,05,56,9.40
2009,08,26,05,57,9.40
2009,08,26,05,58,9.40
2009,08,26,05,59,9.40
2009,08,26,06,00,9.40
2009,08,26,06,01,9.40
2009,08,26,06,02,9.40
2009,08,26,06,03,9.40
2009,08,26,06,04,9.40
2009,08,26,06,05,9.30
2009,08,26,06,06,9.30
2009,08,26,06,07,9.30
2009,08,26,06,08,9.30
2009,08,26,06,09,9.20
2009,08,26,06,10,9.20
2009,08,26,06,11,9.20
2009,08,26,06,12,9.20
2009,08,26,06,13,9.20
2009,08,26,06,14,9.20
2009,08,26,06,15,9.20
2009,08,26,06,16,9.20
2009,08,26,06,17,9.20
2009,08,26,06,18,9.20
2009,08,26,06,19,9.20
2009,08,26,06,20,9.20
2009,08,26,06,21,9.10
2009,08,26,06,22,9.10
2009,08,26,06,23,9.10
2009,08,26,06,24,9.10
2009,08,26,06,25,9.10
2009,08,26,06,26,9.10
2009,08,26,06,27,9.00
2009,08,26,06,28,9.00
2009,08,26,06,29,8.90
2009,08,26,06,30,8.90
2009,08,26,06,31,8.90
2009,08,26,06,32,8.90
2009,08,26,06,33,8.80
2009,08,26,06,34,8.80
2009,08,26,06,35,8.80
2009,08,26,06,36,8.80
2009,08,26,06,37,8.80
2009,08,26,06,38,8.70
2009,08,26,06,39,8.70
2009,08,26,06,40,8.70
2009,08,26,06,41,8.70
2009,08,26,06,42,8.80
2009,08,26,06,43,8.80
2009,08,26,06,44,8.80
2009,08,26,06,45,8.80
2009,08,26,06,46,8.80
2009,08,26,06,47,8.80
2009,08,26,06,48,8.80
2009,08,26,06,49,8.80
2009,08,26,06,50,8.80
2009,08,26,06,51,8.90
2009,08,26,06,52,8.90
2009,08,26,06,53,8.90
2009,08,26,06,54,8.90
2009,08,26,06,55,8.90
2009,08,26,06,56,9.00
2009,08,26,06,57,9.00
2009,08,26,06,58,9.00
2009,08,26,06,59,9.00
2009,08,26,07,00,9.00
2009,08,26,07,01,9.10
2009,08,26,07,02,9.10
2009,08,26,07,03,9.10
2009,08,26,07,04,9.10
2009,08,26,07,05,9.10
2009,08,26,07,06,9.10
2009,08,26,07,07,9.10
2009,08,26,07,08,9.10
2009,08,26,07,09,9.20
2009,08,26,07,10,9.20
2009,08,26,07,11,9.20
2009,08,26,07,12,9.20
2009,08,26,07,13,9.20
2009,08,26,07,14,9.20
2009,08,26,07,15,9.20
2009,08,26,07,16,9.20
2009,08,26,07,17,9.20
2009,08,26,07,18,9.30
2009,08,26,07,19,9.30
2009,08,26,07,20,9.30
2009,08,26,07,21,9.40
2009,08,26,07,22,9.40
2009,08,26,07,23,9.50
2009,08,26,07,24,9.50
2009,08,26,07,25,9.60
2009,08,26,07,26,9.70
2009,08,26,07,27,9.80
2009,08,26,07,28,9.80
2009,08,26,07,29,9.90
2009,08,26,07,30,10.10
2009,08,26,07,31,10.20
2009,08,26,07,32,10.30
2009,08,26,07,33,10.40
2009,08,26,07,34,10.50
2009,08,26,07,35,10.50
2009,08,26,07,36,10.60
2009,08,26,07,37,10.70
2009,08,26,07,38,10.80
2009,08,26,07,39,10.90
2009,08,26,07,40,11.00
2009,08,26,07,41,11.10
2009,08,26,07,42,11.20
2009,08,26,07,43,11.20
2009,08,26,07,44,11.30
2009,08,26,07,45,11.40
2009,08,26,07,46,11.50
2009,08,26,07,47,11.60
2009,08,26,07,48,11.70
2009,08,26,07,49,11.80
2009,08,26,07,50,11.90
2009,08,26,07,51,12.00
2009,08,26,07,52,12.10
2009,08,26,07,53,12.20
2009,08,26,07,54,12.30
2009,08,26,07,55,12.50
2009,08,26,07,56,12.60
2009,08,26,07,57,12.70
2009,08,26,07,58,12.80
2009,08,26,07,59,12.90
2009,08,26,08,00,13.00
2009,08,26,08,01,13.10
2009,08,26,08,02,13.20
2009,08,26,08,03,13.20
2009,08,26,08,04,13.40
2009,08,26,08,05,13.40
2009,08,26,08,06,13.50
2009,08,26,08,07,13.60
2009,08,26,08,08,13.70
2009,08,26,08,09,13.80
2009,08,26,08,10,13.90
2009,08,26,08,11,14.00
2009,08,26,08,12,14.10
2009,08,26,08,13,14.20
2009,08,26,08,14,14.20
2009,08,26,08,15,14.20
2009,08,26,08,16,14.20
2009,08,26,08,17,14.20
2009,08,26,08,18,14.20
2009,08,26,08,19,14.20
2009,08,26,08,20,14.20
2009,08,26,08,21,14.20
2009,08,26,08,22,14.20
2009,08,26,08,23,14.20
2009,08,26,08,24,14.20
2009,08,26,08,25,14.20
2009,08,26,08,26,14.20
2009,08,26,08,27,14.20
2009,08,26,08,28,14.20
2009,08,26,08,29,14.20
2009,08,26,08,30,14.30
2009,08,26,08,31,14.30
2009,08,26,08,32,14.30
2009,08,26,08,33,14.40
2009,08,26,08,34,14.40
2009,08,26,08,35,14.40
2009,08,26,08,36,14.40
2009,08,26,08,37,14.40
2009,08,26,08,38,14.50
2009,08,26,08,39,14.50
2009,08,26,08,40,14.60
2009,08,26,08,41,14.70
2009,08,26,08,42,14.70
2009,08,26,08,43,14.70
2009,08,26,08,44,14.70
2009,08,26,08,45,14.70
2009,08,26,08,46,14.70
2009,08,26,08,47,14.80
2009,08,26,08,48,14.70
2009,08,26,08,49,14.70
2009,08,26,08,50,14.70
2009,08,26,08,51,14.60
2009,08,26,08,52,14.60
2009,08,26,08,53,14.60
2009,08,26,08,54,14.60
2009,08,26,08,55,14.60
2009,08,26,08,56,14.60
2009,08,26,08,57,14.60
2009,08,26,08,58,14.60
2009,08,26,08,59,14.60
2009,08,26,09,00,14.60
2009,08,26,09,01,14.60
2009,08,26,09,02,14.70
2009,08,26,09,03,14.80
2009,08,26,09,04,14.90
2009,08,26,09,05,14.90
2009,08,26,09,06,15.00
2009,08,26,09,07,15.00
2009,08,26,09,08,15.00
2009,08,26,09,09,15.00
2009,08,26,09,10,15.00
2009,08,26,09,11,15.00
2009,08,26,09,12,15.00
2009,08,26,09,13,15.10
2009,08,26,09,14,15.20
2009,08,26,09,15,15.20
2009,08,26,09,16,15.20
2009,08,26,09,17,15.20
2009,08,26,09,18,15.20
2009,08,26,09,19,15.30
2009,08,26,09,20,15.30
2009,08,26,09,21,15.30
2009,08,26,09,22,15.40
2009,08,26,09,23,15.40
2009,08,26,09,24,15.30
2009,08,26,09,25,15.30
2009,08,26,09,26,15.40
2009,08,26,09,27,15.40
2009,08,26,09,28,15.40
2009,08,26,09,29,15.40
2009,08,26,09,30,15.40
2009,08,26,09,31,15.40
2009,08,26,09,32,15.50
2009,08,26,09,33,15.50
2009,08,26,09,34,15.50
2009,08,26,09,35,15.60
2009,08,26,09,36,15.70
2009,08,26,09,37,15.70
2009,08,26,09,38,15.80
2009,08,26,09,39,15.90
2009,08,26,09,40,15.90
2009,08,26,09,41,16.00
2009,08,26,09,42,16.00
2009,08,26,09,43,16.10
2009,08,26,09,44,16.20
2009,08,26,09,45,16.20
2009,08,26,09,46,16.30
2009,08,26,09,47,16.30
2009,08,26,09,48,16.30
2009,08,26,09,49,16.20
2009,08,26,09,50,16.20
2009,08,26,09,51,16.20
2009,08,26,09,52,16.20
2009,08,26,09,53,16.20
2009,08,26,09,54,16.30
2009,08,26,09,55,16.30
2009,08,26,09,56,16.30
2009,08,26,09,57,16.30
2009,08,26,09,58,16.30
2009,08,26,09,59,16.40
2009,08,26,10,00,16.40
2009,08,26,10,01,16.50
2009,08,26,10,02,16.60
2009,08,26,10,03,16.60
2009,08,26,10,04,16.60
2009,08,26,10,05,16.60
2009,08,26,10,06,16.70
2009,08,26,10,07,16.70
2009,08,26,10,08,16.70
2009,08,26,10,09,16.70
2009,08,26,10,10,16.70
2009,08,26,10,11,16.70
2009,08,26,10,12,16.70
2009,08,26,10,13,16.80
2009,08,26,10,14,16.80
2009,08,26,10,15,16.80
2009,08,26,10,16,16.80
2009,08,26,10,17,16.70
2009,08,26,10,18,16.70
2009,08,26,10,19,16.70
2009,08,26,10,20,16.80
2009,08,26,10,21,16.80
2009,08,26,10,22,16.80
2009,08,26,10,23,16.80
2009,08,26,10,24,16.80
2009,08,26,10,25,16.80
2009,08,26,10,26,16.80
2009,08,26,10,27,16.90
2009,08,26,10,28,16.90
2009,08,26,10,29,17.00
2009,08,26,10,30,17.00
2009,08,26,10,31,17.10
2009,08,26,10,32,17.10
2009,08,26,10,33,17.10
2009,08,26,10,34,17.20
2009,08,26,10,35,17.20
2009,08,26,10,36,17.30
2009,08,26,10,37,17.30
2009,08,26,10,38,17.40
2009,08,26,10,39,17.40
2009,08,26,10,40,17.40
2009,08,26,10,41,17.50
2009,08,26,10,42,17.50
2009,08,26,10,43,17.50
2009,08,26,10,44,17.40
2009,08,26,10,45,17.40
2009,08,26,10,46,17.40
2009,08,26,10,47,17.40
2009,08,26,10,48,17.30
2009,08,26,10,49,17.30
2009,08,26,10,50,17.30
2009,08,26,10,51,17.20
2009,08,26,10,52,17.20
2009,08,26,10,53,17.20
2009,08,26,10,54,17.20
2009,08,26,10,55,17.30
2009,08,26,10,56,17.30
2009,08,26,10,57,17.30
2009,08,26,10,58,17.20
2009,08,26,10,59,17.20
2009,08,26,11,00,17.20
2009,08,26,11,01,17.20
2009,08,26,11,02,17.20
2009,08,26,11,03,17.30
2009,08,26,11,04,17.30
2009,08,26,11,05,17.30
2009,08,26,11,06,17.30
2009,08,26,11,07,17.40
2009,08,26,11,08,17.40
2009,08,26,11,09,17.40
2009,08,26,11,10,17.40
2009,08,26,11,11,17.40
2009,08,26,11,12,17.40
2009,08,26,11,13,17.40
2009,08,26,11,14,17.40
2009,08,26,11,15,17.50
2009,08,26,11,16,17.50
2009,08,26,11,17,17.60
2009,08,26,11,18,17.70
2009,08,26,11,19,17.80
2009,08,26,11,20,17.90
2009,08,26,11,21,17.90
2009,08,26,11,22,18.00
2009,08,26,11,23,18.00
2009,08,26,11,24,18.20
2009,08,26,11,25,18.20
2009,08,26,11,26,18.30
2009,08,26,11,27,18.30
2009,08,26,11,28,18.30
2009,08,26,11,29,18.30
2009,08,26,11,30,18.30
2009,08,26,11,31,18.20
2009,08,26,11,32,18.20
2009,08,26,11,33,18.20
2009,08,26,11,34,18.20
2009,08,26,11,35,18.20
2009,08,26,11,36,18.20
2009,08,26,11,37,18.20
2009,08,26,11,38,18.20
2009,08,26,11,39,18.30
2009,08,26,11,40,18.40
2009,08,26,11,41,18.40
2009,08,26,11,42,18.50
2009,08,26,11,43,18.60
2009,08,26,11,44,18.60
2009,08,26,11,45,18.50
2009,08,26,11,46,18.50
2009,08,26,11,47,18.40
2009,08,26,11,48,18.40
2009,08,26,11,49,18.40
2009,08,26,11,50,18.40
2009,08,26,11,51,18.40
2009,08,26,11,52,18.40
2009,08,26,11,53,18.40
2009,08,26,11,54,18.40
2009,08,26,11,55,18.40
2009,08,26,11,56,18.40
2009,08,26,11,57,18.40
2009,08,26,11,58,18.40
2009,08,26,11,59,18.40
2009,08,26,12,00,18.40
2009,08,26,12,01,18.40
2009,08,26,12,02,18.40
2009,08,26,12,03,18.50
2009,08,26,12,04,18.50
2009,08,26,12,05,18.60
2009,08,26,12,06,18.80
2009,08,26,12,07,18.90
2009,08,26,12,08,18.90
2009,08,26,12,09,19.00
2009,08,26,12,10,19.00
2009,08,26,12,11,19.10
2009,08,26,12,12,19.20
2009,08,26,12,13,19.40
2009,08,26,12,14,19.40
2009,08,26,12,15,19.50
2009,08,26,12,16,19.50
2009,08,26,12,17,19.50
2009,08,26,12,18,19.50
2009,08,26,12,19,19.50
2009,08,26,12,20,19.50
2009,08,26,12,21,19.50
2009,08,26,12,22,19.50
2009,08,26,12,23,19.50
2009,08,26,12,24,19.50
2009,08,26,12,25,19.60
2009,08,26,12,26,19.60
2009,08,26,12,27,19.60
2009,08,26,12,28,19.60
2009,08,26,12,29,19.50
2009,08,26,12,30,19.50
2009,08,26,12,31,19.40
2009,08,26,12,32,19.30
2009,08,26,12,33,19.30
2009,08,26,12,34,19.30
2009,08,26,12,35,19.30
2009,08,26,12,36,19.30
2009,08,26,12,37,19.40
2009,08,26,12,38,19.40
2009,08,26,12,39,19.40
2009,08,26,12,40,19.40
2009,08,26,12,41,19.40
2009,08,26,12,42,19.50
2009,08,26,12,43,19.60
2009,08,26,12,44,19.70
2009,08,26,12,45,19.80
2009,08,26,12,46,19.90
2009,08,26,12,47,19.80
2009,08,26,12,48,19.80
2009,08,26,12,49,19.80
2009,08,26,12,50,19.80
2009,08,26,12,51,19.80
2009,08,26,12,52,19.80
2009,08,26,12,53,19.90
2009,08,26,12,54,19.90
2009,08,26,12,55,19.90
2009,08,26,12,56,19.90
2009,08,26,12,57,19.90
2009,08,26,12,58,19.90
2009,08,26,12,59,19.90
2009,08,26,13,00,19.90
2009,08,26,13,01,19.90
2009,08,26,13,02,19.90
2009,08,26,13,03,19.90
2009,08,26,13,04,19.90
2009,08,26,13,05,20.00
2009,08,26,13,06,20.00
2009,08,26,13,07,20.10
2009,08,26,13,08,20.20
2009,08,26,13,09,20.30
2009,08,26,13,10,20.40
2009,08,26,13,11,20.50
2009,08,26,13,12,20.60
2009,08,26,13,13,20.70
2009,08,26,13,14,20.70
2009,08,26,13,15,20.70
2009,08,26,13,16,20.60
2009,08,26,13,17,20.60
2009,08,26,13,18,20.60
2009,08,26,13,19,20.70
2009,08,26,13,20,20.70
2009,08,26,13,21,20.60
2009,08,26,13,22,20.60
2009,08,26,13,23,20.60
2009,08,26,13,24,20.60
2009,08,26,13,25,20.60
2009,08,26,13,26,20.70
2009,08,26,13,27,20.70
2009,08,26,13,28,20.80
2009,08,26,13,29,20.90
2009,08,26,13,30,20.90
2009,08,26,13,31,21.00
2009,08,26,13,32,21.10
2009,08,26,13,33,21.00
2009,08,26,13,34,20.90
2009,08,26,13,35,20.80
2009,08,26,13,36,20.60
2009,08,26,13,37,20.60
2009,08,26,13,38,20.60
2009,08,26,13,39,20.50
2009,08,26,13,40,20.40
2009,08,26,13,41,20.30
2009,08,26,13,42,20.30
2009,08,26,13,43,20.30
2009,08,26,13,44,20.20
2009,08,26,13,45,20.20
2009,08,26,13,46,20.10
2009,08,26,13,47,20.00
2009,08,26,13,48,20.00
2009,08,26,13,49,20.00
2009,08,26,13,50,19.90
2009,08,26,13,51,19.90
2009,08,26,13,52,19.90
2009,08,26,13,53,20.00
2009,08,26,13,54,20.10
2009,08,26,13,55,20.20
2009,08,26,13,56,20.30
2009,08,26,13,57,20.40
2009,08,26,13,58,20.40
2009,08,26,13,59,20.50
2009,08,26,14,00,20.60
2009,08,26,14,01,20.80
2009,08,26,14,02,20.80
2009,08,26,14,03,20.90
2009,08,26,14,04,21.00
2009,08,26,14,05,21.20
2009,08,26,14,06,21.20
2009,08,26,14,07,21.30
2009,08,26,14,08,21.40
2009,08,26,14,09,21.50
2009,08,26,14,10,21.50
2009,08,26,14,11,21.60
2009,08,26,14,12,21.60
2009,08,26,14,13,21.60
2009,08,26,14,14,21.70
2009,08,26,14,15,21.70
2009,08,26,14,16,21.60
2009,08,26,14,17,21.60
2009,08,26,14,18,21.50
2009,08,26,14,19,21.50
2009,08,26,14,20,21.50
2009,08,26,14,21,21.50
2009,08,26,14,22,21.50
2009,08,26,14,23,21.60
2009,08,26,14,24,21.70
2009,08,26,14,25,21.80
2009,08,26,14,26,21.80
2009,08,26,14,27,21.80
2009,08,26,14,28,21.80
2009,08,26,14,29,21.80
2009,08,26,14,30,21.90
2009,08,26,14,31,22.00
2009,08,26,14,32,22.00
2009,08,26,14,33,22.00
2009,08,26,14,34,22.00
2009,08,26,14,35,21.90
2009,08,26,14,36,21.90
2009,08,26,14,37,21.90
2009,08,26,14,38,22.00
2009,08,26,14,39,22.00
2009,08,26,14,40,21.90
2009,08,26,14,41,21.80
2009,08,26,14,42,21.60
2009,08,26,14,43,21.50
2009,08,26,14,44,21.50
2009,08,26,14,45,21.40
2009,08,26,14,46,21.40
2009,08,26,14,47,21.40
2009,08,26,14,48,21.40
2009,08,26,14,49,21.40
2009,08,26,14,50,21.40
2009,08,26,14,51,21.50
2009,08,26,14,52,21.50
2009,08,26,14,53,21.60
2009,08,26,14,54,21.60
2009,08,26,14,55,21.50
2009,08,26,14,56,21.40
2009,08,26,14,57,21.20
2009,08,26,14,58,21.10
2009,08,26,14,59,20.90
2009,08,26,15,00,20.80
2009,08,26,15,01,20.70
2009,08,26,15,02,20.60
2009,08,26,15,03,20.60
2009,08,26,15,04,20.60
2009,08,26,15,05,20.60
2009,08,26,15,06,20.60
2009,08,26,15,07,20.60
2009,08,26,15,08,20.60
2009,08,26,15,09,20.60
2009,08,26,15,10,20.60
2009,08,26,15,11,20.60
2009,08,26,15,12,20.60
2009,08,26,15,13,20.60
2009,08,26,15,14,20.50
2009,08,26,15,15,20.50
2009,08,26,15,16,20.40
2009,08,26,15,17,20.30
2009,08,26,15,18,20.30
2009,08,26,15,19,20.30
2009,08,26,15,20,20.30
2009,08,26,15,21,20.20
2009,08,26,15,22,20.20
2009,08,26,15,23,20.20
2009,08,26,15,24,20.20
2009,08,26,15,25,20.20
2009,08,26,15,26,20.10
2009,08,26,15,27,20.00
2009,08,26,15,28,20.00
2009,08,26,15,29,19.90
2009,08,26,15,30,19.90
2009,08,26,15,31,19.90
2009,08,26,15,32,19.90
2009,08,26,15,33,19.90
2009,08,26,15,34,19.80
2009,08,26,15,35,19.90
2009,08,26,15,36,19.80
2009,08,26,15,37,19.80
2009,08,26,15,38,19.80
2009,08,26,15,39,19.80
2009,08,26,15,40,19.80
2009,08,26,15,41,19.70
2009,08,26,15,42,19.70
2009,08,26,15,43,19.70
2009,08,26,15,44,19.70
2009,08,26,15,45,19.70
2009,08,26,15,46,19.70
2009,08,26,15,47,19.70
2009,08,26,15,48,19.70
2009,08,26,15,49,19.70
2009,08,26,15,50,19.80
2009,08,26,15,51,19.80
2009,08,26,15,52,19.80
2009,08,26,15,53,19.80
2009,08,26,15,54,19.90
2009,08,26,15,55,19.90
2009,08,26,15,56,19.90
2009,08,26,15,57,19.90
2009,08,26,15,58,19.90
2009,08,26,15,59,19.90
2009,08,26,16,00,19.90
2009,08,26,16,01,19.90
2009,08,26,16,02,19.90
2009,08,26,16,03,19.90
2009,08,26,16,04,19.90
2009,08,26,16,05,19.90
2009,08,26,16,06,19.90
2009,08,26,16,07,19.90
2009,08,26,16,08,20.00
2009,08,26,16,09,20.00
2009,08,26,16,10,20.00
2009,08,26,16,11,20.00
2009,08,26,16,12,20.00
2009,08,26,16,13,20.00
2009,08,26,16,14,20.00
2009,08,26,16,15,20.00
2009,08,26,16,16,20.00
2009,08,26,16,17,20.00
2009,08,26,16,18,20.00
2009,08,26,16,19,20.00
2009,08,26,16,20,20.10
2009,08,26,16,21,20.10
2009,08,26,16,22,20.20
2009,08,26,16,23,20.20
2009,08,26,16,24,20.20
2009,08,26,16,25,20.10
2009,08,26,16,26,20.10
2009,08,26,16,27,20.10
2009,08,26,16,28,20.10
2009,08,26,16,29,20.10
2009,08,26,16,30,20.10
2009,08,26,16,31,20.20
2009,08,26,16,32,20.20
2009,08,26,16,33,20.10
2009,08,26,16,34,20.10
2009,08,26,16,35,20.10
2009,08,26,16,36,20.20
2009,08,26,16,37,20.10
2009,08,26,16,38,20.10
2009,08,26,16,39,20.10
2009,08,26,16,40,20.10
2009,08,26,16,41,20.20
2009,08,26,16,42,20.20
2009,08,26,16,43,20.20
2009,08,26,16,44,20.20
2009,08,26,16,45,20.20
2009,08,26,16,46,20.30
2009,08,26,16,47,20.30
2009,08,26,16,48,20.30
2009,08,26,16,49,20.30
2009,08,26,16,50,20.30
2009,08,26,16,51,20.30
2009,08,26,16,52,20.30
2009,08,26,16,53,20.30
2009,08,26,16,54,20.20
2009,08,26,16,55,20.20
2009,08,26,16,56,20.20
2009,08,26,16,57,20.20
2009,08,26,16,58,20.20
2009,08,26,16,59,20.20
2009,08,26,17,00,20.20
2009,08,26,17,01,20.20
2009,08,26,17,02,20.20
2009,08,26,17,03,20.10
2009,08,26,17,04,20.10
2009,08,26,17,05,20.10
2009,08,26,17,06,20.10
2009,08,26,17,07,20.10
2009,08,26,17,08,20.00
2009,08,26,17,09,20.00
2009,08,26,17,10,20.00
2009,08,26,17,11,20.00
2009,08,26,17,12,19.90
2009,08,26,17,13,19.90
2009,08,26,17,14,19.90
2009,08,26,17,15,19.80
2009,08,26,17,16,19.80
2009,08,26,17,17,19.80
2009,08,26,17,18,19.80
2009,08,26,17,19,19.80
2009,08,26,17,20,19.80
2009,08,26,17,21,19.80
2009,08,26,17,22,19.80
2009,08,26,17,23,19.80
2009,08,26,17,24,19.80
2009,08,26,17,25,19.80
2009,08,26,17,26,19.80
2009,08,26,17,27,19.80